Theta_e
321 322 323 322 322 322 321 321 320 320 322 319 321 335 345 341 340 347 353 354 352 353 355 359 359 356 359 366 362 357 358 357 354 351 349 348 349 348 348 347 347 347 346 347 348 347 348 348 348 347 347 348 347 348 348 348 348 348 346 346 346 347 347 346 345 345 345 344 343 343 344 343 342 342 342 341 340 338 338 338 335 332 331 336 339 338
322 322 323 323 322 322 321 321 321 320 320 321 319 325 332 334 341 349 352 356 354 347 348 353 355 356 359 362 356 354 359 356 351 350 349 349 348 348 348 348 348 347 346 349 348 347 348 347 348 347 347 348 348 348 349 348 348 347 347 346 346 346 347 346 344 344 344 343 342 341 343 342 341 341 340 341 342 339 338 338 337 334 333 336 338 339
323 322 323 323 322 321 322 322 321 321 321 321 321 321 323 329 340 348 353 357 353 345 346 351 356 357 357 358 354 352 357 355 351 351 352 351 350 350 349 348 349 348 348 349 349 348 348 347 348 347 348 348 348 348 349 348 348 348 347 347 347 346 346 346 344 344 344 343 341 340 341 341 340 340 340 342 342 338 336 338 338 336 337 338 339 341
320 322 323 322 322 322 323 322 322 324 323 322 321 318 320 329 335 338 346 354 352 346 350 355 357 357 356 357 356 352 353 354 352 353 353 351 351 351 350 349 350 350 350 349 349 349 348 348 348 347 348 348 348 349 349 348 348 348 347 347 347 346 346 345 344 344 344 343 342 341 341 341 340 340 342 344 341 337 335 337 338 337 338 339 340 342
320 322 323 322 323 322 322 324 324 323 323 323 322 319 321 326 331 338 347 352 349 344 353 359 353 354 359 359 357 355 353 353 353 352 352 351 351 351 351 351 351 351 349 349 349 348 348 348 347 347 348 348 349 349 349 349 348 348 348 347 347 346 345 345 344 344 344 344 343 341 341 342 341 341 342 342 339 337 335 334 335 337 338 340 341 342
322 322 323 323 323 322 323 325 325 324 321 320 321 323 322 320 328 343 350 349 343 338 348 356 346 346 357 359 356 355 354 352 351 350 350 351 351 351 351 351 351 349 348 349 349 347 348 349 347 347 349 348 349 349 349 349 349 348 348 347 346 346 345 345 344 344 344 344 343 341 341 341 342 342 341 339 336 336 336 332 331 336 339 339 339 341
324 323 323 324 324 324 324 324 324 324 319 317 322 326 325 325 337 347 347 347 344 340 347 354 349 344 347 352 355 354 355 353 351 350 348 349 350 349 350 350 348 346 347 349 350 348 347 349 348 348 349 349 349 349 349 349 349 349 348 347 347 346 345 345 344 343 343 344 342 340 340 340 341 342 340 338 335 335 337 334 333 339 340 337 337 340
325 325 324 325 326 324 324 324 325 325 319 319 326 329 328 333 344 348 343 346 350 346 345 354 358 349 345 353 357 353 354 354 352 353 349 347 348 348 348 349 347 345 347 348 349 349 348 349 349 348 349 349 350 350 350 350 349 349 348 347 347 346 345 345 344 343 343 343 341 340 339 338 340 341 339 338 337 338 339 336 337 340 337 334 336 339
325 325 325 326 326 323 324 325 326 325 322 325 330 330 329 328 337 341 337 343 350 341 336 346 353 345 344 358 362 354 354 355 355 356 352 346 347 348 347 348 347 346 346 347 348 350 350 349 349 349 349 349 349 350 350 350 349 349 348 348 348 347 346 345 344 343 342 342 341 340 337 337 340 340 338 339 340 340 340 337 337 337 334 335 338 338
324 324 325 326 325 324 326 326 325 325 325 328 328 327 331 330 332 338 340 341 340 333 333 339 346 345 344 353 357 352 354 358 357 355 351 347 346 347 347 347 346 346 347 348 348 349 350 350 349 349 350 349 349 350 350 350 349 349 349 348 348 347 346 345 344 342 342 342 342 340 338 338 341 340 338 340 340 340 340 337 335 333 331 335 339 338
324 324 325 325 326 326 326 324 324 325 325 326 326 330 338 342 344 353 361 351 331 332 342 338 340 348 345 349 357 354 355 360 358 354 350 347 346 346 347 347 347 348 349 347 346 346 348 349 349 350 350 350 349 350 349 349 349 348 348 347 348 347 346 346 344 342 342 342 342 341 340 340 342 340 339 340 340 340 340 337 335 335 334 336 338 338
325 324 326 326 325 324 325 325 323 324 325 325 330 335 335 339 347 350 356 347 328 333 346 341 342 347 342 349 364 360 354 355 359 359 353 348 346 346 347 347 347 349 349 346 344 346 348 349 349 350 350 349 350 349 349 348 347 347 347 347 348 347 346 346 344 342 343 342 341 341 341 341 341 340 340 340 340 340 340 338 337 338 338 337 338 337
326 326 325 324 325 325 325 326 325 327 329 328 329 331 327 328 332 333 337 335 331 335 339 342 351 348 344 354 362 360 354 352 354 355 351 347 346 347 346 346 347 348 347 345 345 347 349 350 349 348 348 348 349 349 349 348 346 346 347 347 347 347 346 346 345 343 343 342 340 340 341 341 340 340 341 339 337 336 338 337 337 339 338 335 336 338
326 329 325 323 324 324 324 325 324 325 329 328 326 324 323 325 325 326 332 333 333 333 333 343 351 344 345 354 354 355 353 349 349 347 347 346 345 347 346 344 346 346 345 344 343 345 346 348 348 347 348 347 347 348 347 346 345 345 347 347 346 347 346 346 345 343 343 342 339 339 340 340 341 341 341 338 335 334 337 338 337 338 338 334 337 342
321 324 326 325 322 323 325 326 324 326 327 325 328 328 325 328 326 324 331 332 330 333 336 344 348 341 344 350 347 350 348 344 347 346 347 346 344 346 347 346 346 345 346 346 344 344 343 345 346 346 347 347 347 346 345 345 345 346 347 347 345 347 347 345 343 343 343 341 339 338 339 340 340 340 340 339 336 335 337 340 339 337 337 336 339 343
319 320 326 326 323 324 326 325 325 327 327 326 329 329 322 326 330 327 330 330 329 338 343 344 346 344 347 351 348 347 345 345 348 348 347 347 345 345 347 349 348 346 347 347 346 346 343 343 345 344 345 346 346 346 346 346 346 347 346 344 342 345 347 345 343 342 343 341 338 339 340 341 341 339 340 341 340 338 340 341 341 337 335 335 338 342
322 323 329 327 325 328 327 326 326 324 328 329 326 324 324 326 329 326 326 329 335 343 342 340 345 346 347 353 352 348 346 347 351 351 348 347 346 345 345 348 348 348 347 346 347 348 346 346 346 345 346 347 346 346 346 346 347 347 344 340 340 344 346 345 343 342 342 342 339 340 342 342 341 340 340 342 342 342 342 342 342 340 337 337 338 340
326 324 330 330 326 328 326 326 329 326 327 328 322 325 330 328 331 332 327 329 340 344 341 340 343 343 343 350 352 350 350 349 353 355 351 348 346 345 345 345 346 347 346 346 349 351 350 348 349 349 349 348 347 346 347 347 346 346 344 341 340 343 345 344 344 343 342 342 340 341 342 341 340 340 340 341 342 342 343 342 343 343 342 342 342 341
329 324 328 332 326 327 329 328 330 328 325 325 324 328 330 323 326 332 327 327 335 339 341 343 344 342 344 350 351 351 354 354 355 359 357 353 349 346 345 345 345 347 347 348 350 352 352 351 351 352 351 350 349 347 348 348 346 346 346 344 341 342 344 344 344 343 341 340 340 340 341 338 338 340 340 340 342 342 343 343 343 344 345 345 345 345
332 327 325 331 328 327 332 331 326 326 327 328 328 330 331 327 326 328 327 327 332 335 339 342 342 345 351 357 355 353 356 357 357 360 360 354 350 349 348 348 348 349 349 349 350 351 352 352 352 353 352 352 351 350 349 349 347 347 347 346 344 342 343 344 344 343 341 341 339 339 338 337 337 340 341 341 342 342 342 342 343 344 345 347 347 346
333 328 322 331 336 328 329 331 326 327 330 328 328 327 327 328 328 329 329 328 330 334 338 342 345 349 357 361 356 352 354 356 357 361 359 352 350 350 349 350 350 350 350 349 350 350 351 351 352 354 354 353 353 352 351 350 348 347 347 347 346 344 342 343 344 343 341 342 341 338 337 338 339 342 342 341 341 342 343 343 343 344 345 346 347 347
330 330 326 329 330 325 329 333 329 330 330 328 328 326 324 327 327 329 330 329 330 332 334 341 345 351 361 361 356 355 354 354 354 355 355 352 351 351 351 352 351 350 350 349 350 350 350 350 351 353 354 353 353 353 351 350 349 348 348 348 348 346 342 341 343 343 341 341 340 339 337 338 340 343 343 343 341 341 343 345 344 344 344 345 346 347
336 341 332 326 329 328 327 330 330 331 330 331 331 327 327 328 330 331 329 329 332 331 334 343 344 349 361 362 357 354 349 349 350 352 352 352 353 353 352 353 351 350 350 350 350 351 350 350 350 351 352 352 352 352 350 349 349 348 348 348 348 348 345 342 341 341 341 341 340 339 339 340 342 343 343 343 342 341 341 342 342 343 344 344 345 346
337 340 332 332 345 347 337 336 339 336 333 331 330 331 329 324 329 335 332 334 337 330 333 343 342 345 358 358 352 348 344 346 350 352 352 352 353 353 352 352 352 352 351 350 351 352 351 351 351 351 351 351 352 353 351 349 349 348 348 348 348 348 348 345 343 342 341 341 341 341 340 341 342 343 342 342 342 341 340 341 342 342 344 344 344 345
330 337 336 336 341 343 341 342 337 334 335 334 331 332 331 329 332 334 333 339 337 329 335 344 340 343 354 355 351 350 349 349 350 351 353 351 352 353 352 353 353 353 353 353 352 353 352 351 352 351 350 350 351 351 351 349 348 348 347 347 346 347 348 348 348 347 344 341 341 341 340 340 341 342 341 340 341 341 341 343 343 343 344 343 343 344
336 347 353 343 332 330 334 335 333 335 336 334 333 333 329 331 335 335 335 337 332 331 341 345 340 344 353 354 355 357 355 353 350 350 351 351 351 353 353 353 354 353 353 353 353 353 352 350 351 351 350 349 349 348 348 348 348 348 347 347 346 346 348 349 350 352 350 347 345 343 340 338 338 339 340 339 339 340 342 344 343 343 344 343 343 344
343 347 360 357 337 333 343 349 347 342 332 327 332 333 328 329 335 338 335 333 333 337 341 343 344 347 350 353 356 356 355 356 353 348 349 351 351 352 353 352 352 352 351 352 353 353 353 351 350 350 349 349 349 348 347 347 348 349 348 348 347 346 347 348 350 352 352 351 350 348 343 338 336 339 341 341 339 338 341 344 344 343 343 343 343 344
342 332 344 353 336 334 351 356 347 336 328 326 328 329 332 334 337 335 329 331 339 337 335 345 353 348 347 352 354 353 354 355 352 347 346 350 351 351 352 351 350 350 350 350 351 351 352 351 351 351 350 350 350 349 349 348 348 349 349 348 348 347 346 347 349 351 351 350 350 350 348 342 340 343 345 345 343 339 339 342 345 344 343 342 343 343
346 331 332 335 329 333 340 339 337 334 330 331 329 329 334 337 337 333 329 335 344 339 337 348 351 344 346 350 351 350 350 349 349 347 345 347 350 350 351 351 351 350 350 349 349 350 350 349 351 351 352 352 352 352 351 350 351 351 350 348 348 347 346 346 347 349 350 350 349 350 349 347 345 346 347 347 347 344 341 340 343 344 342 342 343 343
337 336 334 329 327 332 333 332 335 334 330 331 332 330 329 333 339 338 332 336 342 340 344 352 350 345 346 347 347 346 344 343 344 346 346 347 348 349 349 350 350 350 350 349 350 350 348 348 349 349 350 353 353 354 353 351 351 351 350 349 348 347 347 346 346 347 348 349 349 349 350 349 348 348 348 348 348 348 346 343 341 342 342 343 343 344
327 332 341 344 333 328 334 337 336 335 331 330 335 337 333 333 338 339 335 336 338 335 338 345 347 342 339 341 343 342 342 344 344 345 347 347 348 348 348 349 349 350 350 350 350 349 348 349 350 349 349 351 352 353 353 350 350 349 348 350 349 348 347 347 346 346 347 348 348 349 350 350 349 349 348 348 348 348 348 346 344 344 344 344 344 344
332 332 343 352 335 325 333 335 330 335 333 329 336 339 335 333 334 334 336 339 340 337 337 340 341 340 338 339 341 341 341 342 342 345 348 347 348 348 346 347 347 348 349 350 349 349 349 350 350 349 349 350 350 352 352 352 352 351 350 350 350 349 348 347 347 346 346 346 346 347 349 350 350 349 349 348 348 348 348 348 347 346 346 346 346 346
338 335 337 343 333 329 336 333 331 336 331 330 340 338 332 336 337 334 337 340 343 345 344 340 339 341 341 341 345 346 343 341 342 345 346 346 348 347 344 344 344 346 349 349 349 350 350 350 350 349 350 350 350 350 350 351 352 352 352 351 351 351 351 349 348 347 347 348 347 348 349 350 349 349 348 348 348 348 348 348 348 348 347 347 347 347
337 337 338 342 336 332 337 336 334 333 327 334 350 343 331 335 337 334 334 335 341 348 347 340 339 343 344 344 348 349 345 343 342 342 343 344 345 344 343 343 344 346 349 349 348 349 349 349 350 349 349 350 349 350 349 349 350 351 352 352 352 352 352 352 351 350 348 349 349 349 350 350 350 349 348 347 347 347 348 348 347 348 348 347 347 347
336 337 338 343 338 334 339 337 328 327 335 348 354 342 333 335 339 339 336 335 339 344 342 339 340 342 341 340 342 344 343 342 342 342 343 342 341 342 343 344 346 347 347 348 349 349 349 349 349 349 349 349 349 349 349 348 348 349 349 350 351 352 352 353 353 353 351 350 350 350 349 349 349 349 348 348 346 346 347 347 347 347 348 348 347 347
338 340 337 338 337 332 333 332 328 334 347 350 342 336 336 337 337 336 333 334 340 340 339 341 343 340 336 336 339 341 342 342 343 342 342 340 339 340 341 344 346 345 345 346 347 348 349 348 348 348 348 348 348 348 349 348 348 348 348 348 349 350 352 352 352 352 352 352 352 352 352 351 349 348 348 348 347 347 347 348 348 349 348 348 347 347
335 340 335 329 330 333 332 329 331 335 337 339 339 336 334 335 336 338 334 333 339 340 336 339 344 341 337 337 340 342 342 344 345 344 341 341 342 342 342 344 344 344 345 345 345 347 347 346 346 347 346 347 347 347 347 347 347 347 347 347 347 348 350 351 351 351 351 351 351 352 352 353 352 351 349 349 348 348 348 349 349 349 349 349 348 347
331 336 335 326 329 340 338 330 329 327 328 340 348 340 333 329 332 342 342 337 339 339 333 336 344 341 337 337 340 342 343 347 352 349 343 342 343 343 343 344 344 345 346 346 346 346 346 346 346 345 345 345 346 346 346 346 346 346 346 346 347 347 348 349 350 350 350 350 350 351 352 352 352 352 352 352 351 351 350 350 351 351 351 351 350 349
329 336 338 329 327 334 332 328 329 329 332 348 352 339 332 326 326 337 341 338 340 337 332 336 340 337 336 336 337 339 343 351 356 351 344 343 342 340 341 343 345 345 345 345 345 344 345 346 345 344 344 344 345 346 346 346 346 347 347 346 346 346 347 348 349 349 349 350 350 350 351 351 351 351 352 352 352 351 351 351 351 352 352 352 351 350
327 332 333 328 327 330 329 328 331 331 336 350 350 336 329 327 328 333 333 335 339 336 333 336 337 336 336 334 335 341 347 351 353 347 343 344 341 338 341 343 344 344 344 344 345 344 345 345 344 343 344 344 345 345 345 346 347 346 346 346 346 346 346 347 347 346 347 347 348 348 349 349 350 350 350 351 351 351 351 351 351 351 351 351 351 350
330 331 329 327 328 331 329 325 327 334 342 346 341 332 327 327 329 331 333 337 338 334 332 334 335 334 335 332 334 341 345 343 342 342 342 343 341 340 342 343 343 344 344 344 344 344 344 343 342 343 344 344 344 343 343 345 346 345 345 345 345 346 345 344 344 344 345 346 346 346 346 347 347 348 348 349 350 350 351 351 351 351 350 351 352 352
332 331 331 329 327 331 332 326 326 335 342 338 331 327 326 329 332 334 338 339 334 333 334 333 333 334 334 332 334 338 340 339 339 341 341 341 341 342 342 343 343 344 343 344 344 343 342 342 342 343 344 344 343 343 343 344 344 345 345 344 345 346 345 344 343 343 343 343 344 344 344 345 346 347 347 348 348 349 350 351 351 351 351 351 352 352
330 328 330 332 329 328 327 324 325 333 337 333 331 333 334 338 340 338 336 335 333 334 334 333 333 334 333 333 335 338 340 340 339 341 343 342 342 343 343 344 344 343 344 344 343 343 342 342 342 342 342 342 343 343 343 343 344 345 344 344 345 345 344 344 344 343 342 342 341 339 339 341 344 346 348 349 349 349 349 350 350 350 351 352 352 352
334 332 334 337 336 330 327 328 332 336 335 331 335 341 341 339 338 334 332 334 334 335 335 334 334 335 334 335 337 339 341 340 339 341 343 342 343 343 344 344 344 344 344 344 343 343 343 341 341 340 340 341 343 344 343 343 344 345 344 345 345 344 344 344 343 343 343 342 340 337 337 338 340 343 346 348 349 350 350 350 350 350 351 352 352 353
334 336 336 338 340 337 336 338 337 334 332 331 334 338 337 335 334 333 332 333 333 334 336 335 334 335 335 334 336 340 341 340 340 342 342 343 344 344 343 344 343 343 343 343 342 342 341 340 340 340 341 343 343 343 343 343 344 344 344 344 344 344 344 343 342 342 343 341 340 338 337 338 340 341 342 343 346 348 349 349 350 350 350 351 351 352
332 333 335 339 342 338 334 336 336 333 333 333 333 334 334 333 334 333 332 333 334 335 336 335 335 336 336 335 336 339 341 341 342 343 343 344 345 344 344 344 343 343 343 342 342 341 340 340 341 341 342 343 343 343 343 343 343 343 344 344 344 343 342 342 341 341 341 341 341 341 339 340 341 342 342 342 344 346 348 349 349 350 350 351 351 351
333 332 335 340 343 339 335 338 340 336 334 335 334 335 335 332 332 333 333 333 334 335 335 335 336 336 336 336 335 337 341 343 343 344 344 345 345 344 344 344 343 343 343 342 341 340 340 340 341 340 341 342 343 343 343 342 343 343 343 343 343 342 342 342 341 340 340 340 340 340 340 340 341 343 344 343 344 345 347 348 349 349 349 350 350 350
334 334 338 340 342 341 337 337 338 335 333 335 334 333 333 332 333 334 334 334 335 335 334 333 334 335 335 335 335 338 342 344 343 344 345 344 344 344 344 343 343 342 342 341 340 339 339 339 338 337 338 340 342 342 342 342 343 342 342 343 342 342 343 342 341 340 339 339 339 339 339 340 341 343 344 344 344 344 345 346 347 347 348 348 349 350
331 334 339 340 342 345 340 336 336 336 335 334 333 332 332 333 333 334 334 334 335 335 333 333 334 336 336 337 338 341 343 344 344 345 344 344 344 344 343 343 342 341 341 340 339 338 337 337 336 336 338 339 340 340 341 341 341 341 342 342 342 342 342 341 342 341 340 339 338 339 340 340 341 343 343 343 343 343 344 345 345 346 346 347 348 349
330 336 343 342 342 346 344 338 337 340 339 335 333 334 333 333 334 335 335 334 333 334 335 334 335 337 339 338 338 340 342 344 345 344 344 344 344 343 343 342 340 340 340 339 338 337 336 336 337 338 339 339 339 339 340 341 340 341 342 342 342 342 340 340 342 341 340 339 339 339 340 340 340 342 343 342 342 342 343 344 344 345 346 346 347 348
328 336 345 347 345 345 342 335 333 337 338 333 332 334 335 334 334 334 333 334 335 336 336 335 335 337 338 337 337 338 341 343 343 343 344 344 343 342 342 340 339 339 338 337 336 336 335 336 338 338 338 337 338 338 339 340 340 341 341 341 341 341 340 340 341 341 341 340 338 338 339 339 339 340 341 341 341 341 341 342 343 345 345 346 347 348
Wind_Speed
6 2 2 5 7 9 10 9 10 11 9 8 6 3 6 6 4 5 4 4 10 7 5 9 7 4 5 5 5 11 13 9 7 5 5 10 15 18 20 19 20 23 22 23 27 32 33 31 29 25 26 27 26 26 26 24 22 18 16 17 17 16 16 17 18 18 17 17 19 20 21 22 22 21 21 20 20 21 21 20 21 22 22 21 20 19
4 4 7 11 12 13 11 8 9 11 10 10 7 4 4 4 5 7 4 5 8 5 3 6 5 4 5 6 6 9 8 5 7 6 6 11 14 17 18 17 18 22 25 27 28 30 29 28 28 25 26 30 29 28 26 24 21 18 15 15 15 15 15 16 17 17 16 16 18 20 21 22 23 22 21 20 19 21 21 20 22 23 22 20 19 19
1 5 12 14 12 11 9 8 10 11 9 7 4 2 2 3 4 4 1 5 6 2 2 4 5 3 2 3 4 6 7 5 7 6 4 9 13 15 16 15 15 20 26 28 27 30 28 27 28 26 27 31 30 28 25 22 19 17 16 15 14 14 14 15 16 16 15 16 17 19 20 22 22 21 20 18 17 20 22 22 23 23 21 19 19 19
2 8 16 15 10 9 10 10 9 5 2 2 2 1 4 3 4 2 1 5 4 1 2 5 5 2 2 2 2 3 7 6 5 4 2 4 9 11 11 12 15 19 25 27 28 32 31 28 29 27 28 32 29 26 24 21 18 17 17 16 14 13 13 14 15 15 15 15 17 18 19 20 20 19 19 18 18 20 22 23 24 24 22 20 19 18
8 14 17 11 10 11 10 7 3 1 3 3 3 3 4 5 4 3 3 6 4 1 3 7 5 3 1 1 1 1 4 6 4 3 2 2 5 5 6 10 15 16 23 26 26 29 29 27 28 26 27 30 27 24 22 20 18 17 17 16 14 13 14 14 15 16 16 17 18 19 21 21 19 20 22 21 21 22 23 25 25 24 23 22 19 16
12 20 16 6 9 12 8 6 3 3 4 4 3 6 7 9 5 6 8 7 5 1 3 5 5 3 4 2 3 2 2 3 0 2 3 1 3 5 7 11 13 13 20 22 20 26 28 25 24 22 24 26 24 22 21 19 17 16 17 16 15 14 15 16 16 17 17 18 20 21 24 25 23 24 25 23 22 23 23 24 25 24 24 23 20 16
7 13 9 5 5 5 3 4 3 4 3 2 4 7 6 4 4 10 11 7 4 5 5 3 5 2 4 3 5 4 2 1 2 2 2 1 4 5 7 11 12 13 19 19 20 28 29 25 23 21 23 25 23 22 20 19 18 16 17 16 15 15 16 17 17 17 17 18 20 22 25 25 24 25 25 23 21 21 22 23 25 25 25 24 21 18
1 3 2 2 1 2 1 2 4 3 4 3 6 5 3 4 8 12 10 5 3 4 2 1 5 3 2 4 4 6 4 3 2 1 1 2 4 5 6 10 12 13 17 17 21 28 27 26 25 23 25 25 23 22 20 19 18 17 17 16 15 15 16 17 17 17 18 18 19 22 24 25 24 24 24 22 20 20 22 23 25 25 26 24 23 20
1 1 1 3 3 2 2 5 5 1 4 4 8 3 4 4 8 10 8 4 3 4 1 3 3 4 3 5 2 4 4 3 3 3 3 4 4 4 4 8 10 14 17 15 19 25 25 26 26 25 26 24 22 21 20 19 18 18 17 17 17 15 15 16 16 17 18 18 19 22 24 25 23 23 23 21 20 21 22 23 24 25 25 24 23 22
4 6 6 5 3 3 5 7 4 4 4 5 6 1 3 4 7 8 7 4 3 4 4 6 3 4 2 5 2 1 3 4 4 3 3 5 5 3 5 7 9 15 17 14 17 21 20 22 24 25 24 22 22 21 20 19 18 18 17 17 19 15 14 15 14 16 18 19 20 22 24 25 23 23 23 21 21 23 22 22 24 25 25 23 22 22
9 12 10 4 4 5 6 5 3 4 5 3 2 4 5 5 5 4 3 4 3 1 5 7 7 5 0 4 3 3 3 4 5 3 3 5 5 6 9 10 12 16 15 14 17 17 15 18 21 23 22 21 21 20 20 20 19 18 17 18 19 15 14 14 14 16 18 19 21 23 24 24 23 23 24 22 23 24 23 23 24 23 22 22 21 21
6 7 7 4 7 6 2 0 2 3 0 4 3 3 4 4 4 4 4 3 2 4 5 5 6 6 2 4 4 3 2 5 7 5 6 6 7 10 12 13 13 15 15 15 16 15 15 18 21 21 21 20 20 19 19 19 18 19 18 20 20 16 14 15 15 17 19 19 22 25 26 24 22 23 24 23 23 24 24 24 23 22 20 20 20 19
5 5 4 3 6 5 4 3 4 6 5 6 2 3 4 2 4 3 3 1 2 4 4 4 6 4 1 4 5 3 2 5 7 9 12 13 13 13 14 14 13 14 15 14 13 14 17 19 21 22 21 20 19 19 19 18 17 17 19 20 19 16 15 15 16 19 20 20 22 26 27 24 22 23 23 21 22 23 22 22 22 21 20 20 19 17
4 5 1 3 1 1 5 3 1 4 4 4 1 2 3 2 1 1 3 2 2 1 3 2 3 2 3 3 4 4 4 7 10 14 17 19 20 18 16 16 14 14 14 12 13 14 16 19 20 20 20 19 18 18 19 18 16 16 19 20 18 16 16 16 18 20 21 21 23 26 27 24 23 23 22 21 21 20 20 20 20 20 20 21 19 17
1 4 2 2 2 0 3 4 5 2 0 1 3 5 3 3 4 3 3 2 2 1 2 4 3 2 2 3 3 3 5 7 11 16 18 18 20 20 17 16 15 14 13 12 13 13 14 17 18 18 18 18 17 16 17 18 17 17 19 19 17 17 17 18 20 22 22 22 24 25 26 25 24 23 21 20 19 19 19 19 18 18 19 20 18 16
2 1 4 3 4 5 3 4 5 5 1 3 1 4 1 2 4 2 2 4 4 2 2 4 2 2 2 3 2 3 4 4 6 13 17 16 18 18 18 17 16 15 13 12 13 12 12 13 15 16 17 17 17 15 15 17 19 19 19 18 17 17 18 19 22 23 22 24 26 26 25 25 24 23 22 20 19 19 19 19 18 18 18 18 17 15
2 1 4 2 1 3 5 4 4 5 2 2 3 1 5 4 6 3 2 1 5 4 1 1 1 3 2 3 4 3 2 1 2 8 13 16 18 18 19 20 17 15 15 13 12 12 11 12 12 14 15 16 16 16 14 16 19 20 18 17 17 17 18 20 23 24 24 25 27 26 25 25 25 25 24 22 21 20 20 19 18 17 17 17 16 15
4 1 5 1 2 4 1 3 2 2 5 3 1 4 4 1 3 3 1 3 4 3 1 1 1 2 0 2 4 2 1 2 1 4 8 12 17 18 19 20 17 16 15 14 12 11 11 12 13 12 13 14 16 16 14 16 19 19 18 16 16 17 19 22 23 24 25 26 28 27 26 27 27 26 25 24 23 21 20 19 18 18 18 17 16 15
5 1 7 1 4 2 3 6 5 5 3 4 3 2 1 2 1 1 2 0 2 2 1 2 3 3 3 2 3 4 4 3 3 4 5 7 12 16 18 19 18 16 15 15 14 13 12 12 14 13 13 13 14 15 15 16 18 18 18 17 16 17 19 21 23 24 25 27 28 28 28 29 29 27 26 25 23 21 20 20 20 20 21 20 19 18
3 4 4 4 2 2 4 5 1 5 6 4 2 3 2 2 2 1 1 2 4 3 2 0 3 3 4 4 5 6 7 5 5 4 4 5 8 12 15 18 18 17 16 16 15 14 14 13 14 14 13 12 12 13 14 16 17 18 18 18 16 17 18 21 23 24 25 27 28 29 29 29 29 28 27 27 25 23 21 21 21 21 20 20 20 20
3 4 1 6 3 4 2 0 4 3 1 3 3 4 2 1 0 1 1 0 4 4 3 2 1 4 5 3 6 8 7 6 7 5 4 6 7 9 10 14 17 16 14 15 14 14 14 15 16 15 13 12 11 12 15 16 17 18 18 18 18 17 19 21 23 25 25 26 28 30 30 31 31 29 28 27 26 24 23 22 22 22 20 18 18 20
2 3 3 2 4 3 2 4 4 6 5 4 2 1 2 1 2 3 3 3 2 4 4 4 2 5 5 2 4 7 6 5 8 8 6 7 9 9 9 10 13 14 13 13 12 13 13 14 16 17 15 14 12 13 16 17 19 19 19 19 19 19 19 21 23 25 26 27 28 30 32 32 31 29 28 27 26 26 24 23 23 22 21 19 18 19
3 3 4 1 1 3 5 3 3 3 2 3 2 2 4 3 3 4 1 3 1 3 1 3 2 4 4 2 4 5 6 8 11 12 9 8 9 9 8 7 9 11 13 12 11 12 12 13 15 16 16 15 13 13 15 18 20 21 20 20 20 21 20 21 22 24 25 26 28 30 31 31 31 29 28 27 27 26 25 23 21 22 23 22 20 20
3 4 4 1 3 3 4 5 7 6 5 4 2 1 2 1 2 5 4 2 2 2 1 3 1 4 5 3 5 6 8 10 12 13 12 11 10 9 7 6 7 10 11 11 10 10 11 14 15 16 15 15 14 13 14 18 21 22 22 22 22 22 21 21 22 22 24 26 27 28 29 29 29 29 28 28 27 25 23 21 21 22 22 22 22 22
1 2 4 3 4 6 6 6 7 6 3 2 2 4 1 2 5 5 2 3 3 1 1 4 2 5 5 1 5 6 7 8 9 13 13 12 12 11 9 7 7 8 8 8 9 8 8 13 18 17 15 15 15 14 13 17 20 22 23 24 24 23 23 23 22 21 22 23 25 27 28 28 28 28 28 27 27 26 23 22 22 22 21 21 21 22
4 2 4 5 3 0 1 1 2 2 2 1 2 4 3 3 6 5 2 5 2 2 2 5 4 4 3 2 5 4 5 6 7 11 13 12 13 12 11 10 8 7 6 5 6 8 7 11 16 17 15 14 14 14 14 16 18 19 21 23 24 24 25 25 24 24 23 22 22 24 25 26 27 27 27 27 27 27 26 24 24 23 22 22 22 22
4 2 4 7 7 6 6 6 5 3 1 2 3 2 1 2 4 6 5 3 3 2 2 3 6 4 3 5 6 4 5 6 5 9 12 13 14 13 12 10 8 6 6 4 5 7 8 9 13 14 15 14 14 14 15 16 16 17 19 22 23 24 26 27 27 27 26 25 23 23 23 25 26 24 23 24 25 28 28 27 25 25 25 24 24 24
4 1 3 7 8 8 8 6 5 2 2 3 4 3 0 2 3 6 5 4 5 5 1 5 5 7 7 7 7 6 6 5 6 10 14 16 16 14 12 10 8 7 7 5 5 5 6 7 9 11 13 13 13 13 14 15 15 16 17 20 22 23 26 28 29 30 29 27 26 26 25 24 24 23 20 19 21 25 29 29 27 26 26 26 25 25
6 2 4 6 5 5 7 5 3 1 2 3 3 3 2 2 4 5 4 6 6 6 4 4 6 7 7 7 8 9 9 10 12 15 17 17 16 14 13 11 11 10 9 8 7 6 5 5 6 9 11 13 13 13 14 14 13 13 14 17 20 22 25 28 30 31 31 28 27 29 28 25 24 25 23 21 20 21 25 29 30 29 28 28 27 26
5 1 3 5 3 1 4 5 3 3 1 1 1 4 3 3 5 5 5 6 6 6 7 8 9 7 7 8 10 13 16 17 16 16 16 16 16 15 15 14 13 12 10 10 9 8 6 5 4 5 7 10 13 14 13 12 11 11 13 16 19 21 24 27 30 32 34 31 28 28 30 29 28 27 27 27 25 22 22 25 29 30 29 29 29 28
3 2 2 4 4 3 2 4 6 4 2 2 4 6 4 1 4 4 4 5 5 4 5 8 9 3 4 9 12 14 17 15 12 13 15 17 18 16 15 15 15 14 12 11 10 7 6 6 5 4 4 6 8 10 10 11 12 13 13 14 17 19 22 26 29 32 34 34 31 28 29 32 32 31 30 30 29 27 26 25 26 28 28 29 29 28
3 2 1 5 5 3 3 5 5 5 7 6 6 6 5 1 4 2 3 3 5 7 6 7 6 3 4 7 9 10 12 11 11 14 16 17 17 16 14 13 13 14 14 12 10 8 7 7 6 4 4 4 4 5 7 11 12 11 11 12 15 18 20 23 27 30 33 34 33 31 29 31 34 35 34 32 31 30 29 29 28 28 28 30 30 29
3 4 2 4 4 3 4 3 5 6 7 5 4 2 1 0 1 2 2 0 3 7 6 5 6 6 4 8 7 6 9 10 13 16 17 17 16 14 11 8 8 12 13 12 10 9 8 7 5 4 4 4 4 4 5 9 10 10 10 11 12 15 17 19 23 27 31 32 33 34 31 30 33 36 36 35 35 33 31 31 32 31 31 31 32 32
2 4 3 3 4 3 5 2 6 5 2 4 6 6 5 3 4 5 5 3 3 5 5 5 6 5 6 10 10 9 10 13 16 17 16 16 16 12 9 8 9 11 11 10 9 9 8 7 5 5 5 4 5 6 6 9 10 9 10 10 11 14 15 17 19 23 26 29 31 32 32 32 33 35 36 36 36 36 35 35 35 34 34 33 33 33
1 3 2 2 4 3 1 5 5 1 5 6 6 5 4 6 9 8 5 3 2 4 8 7 7 7 9 13 17 18 19 19 19 17 15 14 14 12 10 10 10 10 9 8 8 8 9 8 7 7 6 6 6 8 8 10 11 11 12 12 12 13 15 16 18 19 21 24 26 28 29 31 33 34 35 35 36 37 38 38 37 35 34 34 34 35
4 3 2 1 2 3 2 3 3 5 6 4 5 5 1 4 5 5 4 6 6 3 9 9 7 7 11 16 20 22 22 21 17 15 13 12 10 10 9 9 8 7 6 5 6 6 7 8 8 9 9 9 10 11 12 13 14 14 15 15 15 15 16 18 20 20 19 21 22 24 26 28 30 33 34 35 36 38 39 39 38 36 34 34 35 36
6 3 2 2 2 3 4 3 2 3 5 5 4 3 2 2 4 4 2 4 6 2 7 10 8 8 12 16 18 21 21 17 11 9 11 11 9 9 7 6 6 5 4 4 4 5 6 6 7 8 9 10 12 13 15 16 17 17 19 19 19 18 18 19 21 21 21 22 22 22 22 24 27 31 33 34 36 38 39 39 39 38 37 36 35 35
7 4 4 4 2 3 5 2 0 2 4 5 6 7 4 5 8 8 5 2 6 4 5 10 9 8 10 13 17 20 18 11 3 6 12 12 10 9 6 5 6 6 6 7 6 6 6 6 6 6 8 10 12 14 15 16 17 18 18 19 19 19 19 19 19 19 20 21 22 22 22 23 26 29 31 34 35 37 38 39 39 39 39 38 37 36
6 4 5 5 2 2 5 3 3 4 5 7 8 6 4 12 12 8 7 2 6 4 4 11 10 10 13 16 18 16 12 5 3 9 14 14 10 8 7 7 9 8 8 9 8 7 6 6 6 7 8 9 11 13 14 15 16 17 17 18 18 18 17 17 18 19 19 19 20 21 22 23 25 28 30 33 35 36 37 37 38 38 40 41 41 41
4 3 5 5 4 4 5 4 3 3 4 7 8 5 9 17 14 9 4 4 6 1 9 14 13 12 14 16 14 9 5 3 5 11 17 15 10 8 9 10 10 10 9 8 7 7 7 7 9 9 9 9 10 11 12 14 15 15 15 15 16 17 16 16 18 19 20 20 20 21 22 23 25 27 29 30 32 34 35 36 36 38 41 43 43 44
1 2 3 4 4 6 6 4 3 3 4 5 6 7 12 13 9 4 3 8 9 9 12 16 17 15 14 13 10 5 5 6 7 13 18 15 11 11 11 10 9 8 7 7 7 8 8 10 11 11 10 10 11 11 11 12 13 13 13 13 14 14 15 15 16 16 16 17 19 21 24 26 27 29 30 30 30 30 33 34 35 37 39 41 41 41
2 1 1 3 4 4 4 4 2 3 4 5 5 9 12 7 1 4 7 12 16 16 13 15 16 15 13 11 9 9 10 11 12 15 16 15 14 14 12 10 9 8 8 9 9 8 9 9 10 10 11 12 12 12 11 12 13 13 13 14 14 13 13 13 12 13 14 16 18 20 23 27 29 30 30 30 31 31 32 33 35 36 38 39 40 40
1 1 1 2 3 2 1 3 3 2 6 9 8 5 4 3 8 12 13 14 16 15 14 15 15 13 12 11 10 12 14 14 13 15 17 16 16 15 13 11 10 9 9 9 8 8 8 8 9 10 11 12 12 12 11 11 12 12 13 14 15 14 14 12 12 13 15 16 17 18 19 22 26 28 28 28 29 30 31 32 33 35 36 37 37 37
1 0 1 2 1 3 2 3 4 3 7 10 8 3 4 11 20 23 20 15 13 12 12 13 13 13 13 12 12 14 15 14 15 17 19 19 17 15 13 11 11 11 10 9 8 7 7 8 9 10 10 10 10 10 9 9 10 11 12 13 14 14 13 13 13 15 15 16 17 17 17 18 21 24 27 27 27 28 29 30 31 31 33 34 34 34
3 3 4 2 2 2 4 4 4 2 3 9 12 13 17 21 22 22 19 16 14 13 14 14 15 14 12 11 13 14 15 16 18 18 19 18 15 12 11 10 10 11 10 9 8 7 7 8 8 9 9 9 8 9 9 10 10 11 11 11 11 11 11 10 11 12 13 14 15 17 19 20 21 22 25 27 27 27 28 29 29 29 29 30 31 31
5 5 3 3 2 1 3 2 2 4 8 14 18 21 23 22 18 16 17 17 16 16 16 17 16 14 12 12 13 14 16 19 19 17 16 15 13 11 11 11 11 10 9 8 7 6 7 8 8 8 8 8 9 10 11 10 10 10 9 9 8 7 7 7 7 9 10 11 13 16 18 18 17 18 21 24 25 27 27 27 27 27 27 27 29 31
6 8 3 2 2 2 1 3 4 6 13 18 20 20 19 19 17 17 18 19 19 19 17 16 15 14 13 12 11 13 18 20 18 16 15 14 13 13 12 12 11 10 9 8 6 6 7 7 7 7 7 8 11 12 11 10 9 9 8 7 6 5 5 6 6 8 10 11 13 14 14 12 11 12 15 18 22 25 27 27 27 27 28 28 29 32
6 8 5 2 3 2 2 3 3 7 13 16 18 18 17 17 17 18 19 19 19 17 15 13 13 12 11 10 10 14 19 19 17 16 17 16 15 14 13 11 10 9 8 7 6 6 7 7 7 7 8 9 11 12 11 10 9 8 7 6 5 4 4 5 5 8 10 12 12 11 10 9 10 11 13 13 16 21 25 27 26 26 27 27 29 32
7 7 2 0 3 3 2 4 5 5 6 7 13 16 17 17 19 20 19 17 15 14 13 11 9 9 10 12 12 14 17 17 15 16 16 15 15 14 12 10 9 8 7 6 6 6 7 7 7 8 9 10 10 10 10 11 10 7 6 5 5 4 4 4 4 6 9 11 10 8 7 9 11 12 13 14 12 14 19 22 24 25 26 26 26 28
6 3 1 2 3 1 2 1 2 2 2 5 10 15 16 17 19 19 17 14 13 12 11 11 11 10 10 10 9 10 14 15 14 15 15 14 14 12 10 8 8 7 6 5 6 7 7 7 6 7 9 10 10 9 9 10 9 7 6 5 5 5 4 2 3 4 5 7 7 6 7 9 10 11 11 12 11 11 13 15 18 20 21 21 23 24
7 4 2 3 3 3 5 4 4 2 3 8 11 16 17 16 16 16 14 13 13 11 10 11 12 12 10 9 7 7 10 12 13 13 13 13 12 10 8 7 7 6 5 4 6 6 6 6 6 7 8 8 8 7 9 9 8 8 8 6 5 6 4 2 1 3 3 5 6 6 6 8 9 9 9 10 10 10 11 13 16 18 19 19 21 22
Wind_Direction
184 203 262 226 231 231 230 209 211 235 239 255 258 203 196 195 221 237 244 224 164 156 213 197 205 231 203 204 180 179 188 199 216 216 209 218 223 215 208 209 212 214 206 189 183 179 175 170 168 169 171 179 186 185 185 186 192 199 199 193 189 191 196 196 196 195 193 187 184 184 184 188 191 191 188 184 183 185 183 185 190 191 189 189 191 190
164 201 239 227 227 230 231 213 214 237 236 244 245 202 204 194 221 240 218 189 162 149 241 191 194 234 196 178 183 179 175 187 196 191 214 230 235 227 219 218 215 214 198 179 176 181 181 178 178 179 175 179 184 183 185 188 192 198 200 195 190 194 198 198 201 201 199 195 192 189 185 185 187 188 188 184 183 187 185 185 190 192 191 194 195 188
163 240 245 233 231 238 246 234 227 235 218 222 229 178 261 228 215 266 73 143 156 141 266 169 158 219 189 154 174 160 148 171 193 187 210 230 246 248 241 234 214 199 183 170 171 178 180 179 181 181 177 180 184 182 185 190 193 196 196 195 195 201 202 201 203 203 204 200 195 194 189 187 187 187 187 186 185 186 186 186 189 192 194 196 192 185
214 246 247 238 231 241 256 248 230 236 224 235 235 197 271 229 176 271 350 135 141 91 162 136 112 41 22 63 67 127 148 148 161 167 173 240 260 258 249 234 203 178 167 162 162 168 169 168 171 172 174 179 181 181 184 189 192 195 196 198 200 206 208 205 203 205 208 200 192 194 192 189 188 186 186 187 188 188 188 188 191 194 195 194 189 186
227 242 247 236 217 227 246 257 246 287 306 289 233 201 251 241 199 198 154 130 113 29 126 108 72 354 323 129 44 356 127 110 115 125 97 281 261 235 219 204 188 170 163 160 157 160 160 161 167 167 170 176 179 180 185 189 195 198 199 200 204 207 205 203 202 203 205 197 191 192 191 189 187 185 186 189 190 190 190 190 193 193 191 189 185 184
239 246 246 210 198 216 232 263 267 227 260 309 262 224 240 248 221 142 129 120 110 196 209 118 81 304 281 212 211 250 64 80 91 73 80 280 245 217 208 189 178 163 159 156 154 160 158 159 168 169 170 177 181 183 187 192 197 200 200 201 203 203 198 197 198 200 202 198 194 193 190 188 186 186 188 190 191 190 189 189 191 190 187 185 181 177
247 248 234 168 186 210 228 265 247 204 202 318 254 221 225 233 164 142 137 124 132 198 225 139 116 235 289 271 213 181 127 198 268 18 71 217 233 219 212 201 192 172 162 158 158 163 163 164 170 173 178 184 185 186 190 195 196 196 197 198 198 197 194 193 194 198 201 201 198 194 191 189 188 189 187 187 191 191 189 188 187 187 186 184 181 177
249 285 276 135 115 66 37 285 259 220 152 217 248 206 147 104 131 145 137 128 172 187 247 80 109 128 250 257 213 156 152 217 262 319 309 262 230 213 206 210 211 190 174 166 158 160 164 167 172 180 184 185 186 189 195 199 199 196 193 194 194 194 192 190 191 197 201 202 199 194 191 191 192 192 186 183 189 192 193 191 187 187 188 185 184 183
269 15 212 144 103 90 177 221 230 174 113 228 251 186 114 97 129 140 137 151 159 125 250 290 89 99 242 268 266 144 165 222 234 229 257 265 235 211 196 207 212 192 178 167 159 160 163 167 175 185 186 185 188 193 200 205 205 200 195 195 194 193 191 189 192 197 199 200 199 195 193 193 194 192 187 186 189 190 191 190 186 188 189 187 187 188
266 256 228 172 156 196 214 223 200 123 129 241 265 270 37 57 108 125 138 151 112 112 203 234 157 119 248 279 293 213 211 218 218 216 231 246 237 198 177 182 181 176 170 164 164 167 171 175 183 190 190 190 192 197 202 206 208 205 203 202 197 194 191 191 193 195 195 195 196 197 195 194 193 191 189 189 188 185 186 188 188 190 191 191 191 191
261 272 272 231 200 199 202 221 197 167 176 182 325 348 7 25 77 95 110 116 106 227 234 214 175 132 188 274 242 227 231 182 170 178 202 229 230 179 163 159 152 155 158 160 165 173 186 194 196 196 195 195 195 200 203 204 208 210 211 207 200 196 193 193 194 191 192 193 193 195 195 194 195 191 189 191 188 184 184 187 191 193 194 196 195 193
284 285 279 225 200 197 169 294 301 299 74 96 67 46 41 356 18 37 0 45 122 260 265 187 141 103 101 255 248 244 214 158 157 167 181 206 207 174 161 159 148 147 155 162 169 180 196 203 204 201 201 202 201 203 204 206 210 211 212 206 198 195 193 195 196 192 192 192 191 192 193 194 196 192 192 195 192 187 185 188 193 194 194 195 193 193
302 264 249 193 200 187 96 29 330 343 30 68 56 50 67 1 358 10 313 308 190 255 269 166 119 85 224 244 249 237 176 172 179 178 176 186 190 176 167 165 157 154 161 169 180 192 203 208 207 205 206 207 206 207 209 210 210 207 206 201 196 194 191 195 199 195 194 192 189 190 192 195 196 194 196 199 194 190 187 191 196 196 194 192 192 194
310 302 344 94 230 179 97 96 324 333 18 57 129 144 113 117 63 287 273 278 246 267 282 233 103 74 283 275 250 227 196 190 191 185 179 181 183 177 171 167 164 165 168 179 192 197 205 213 211 208 209 208 208 211 212 212 214 206 198 196 195 192 191 196 199 197 195 191 187 189 190 194 196 195 198 200 196 192 190 195 199 197 194 193 196 198
290 323 329 147 206 69 90 158 164 156 36 263 181 143 130 150 149 195 216 206 224 202 297 326 37 117 221 269 241 195 178 176 184 189 186 184 184 181 177 175 176 181 183 192 199 197 205 216 214 210 211 211 210 213 212 212 214 204 195 194 193 192 194 195 195 195 195 190 187 189 191 194 197 196 196 197 197 195 194 197 201 199 194 193 196 196
124 267 261 230 177 147 156 203 156 103 48 272 119 78 25 198 149 168 205 166 148 110 4 352 359 187 205 273 286 123 140 154 169 184 186 189 192 187 187 188 190 194 196 199 200 197 200 208 211 210 212 214 211 209 208 205 202 195 192 193 190 191 197 195 190 190 191 189 186 188 191 193 195 193 191 192 194 197 196 198 201 201 197 194 194 194
90 267 263 282 338 185 175 181 151 123 149 291 46 28 257 195 137 136 298 21 93 91 1 1 328 316 353 318 322 38 76 1 101 160 175 189 194 191 193 196 199 202 203 204 200 193 187 187 193 200 207 209 203 200 200 198 194 189 190 190 185 188 195 193 189 187 188 189 188 188 190 189 189 188 188 189 192 196 198 201 204 206 205 202 200 198
133 288 273 157 26 292 188 78 23 125 132 110 104 242 254 75 97 111 69 358 55 82 293 346 324 272 5 305 302 333 309 290 231 151 161 180 188 193 198 199 204 210 208 205 196 186 184 183 185 191 200 202 195 193 196 193 191 191 192 189 183 186 192 192 189 187 187 190 190 190 189 187 187 187 188 192 194 197 201 204 207 211 214 216 214 211
122 57 296 247 106 315 10 48 0 341 55 118 180 230 67 56 330 16 74 62 68 92 233 327 321 241 190 223 240 231 237 226 206 178 152 173 183 191 201 202 205 209 207 202 195 191 192 188 188 193 198 199 194 192 193 191 192 196 196 193 188 188 191 190 189 187 188 190 190 189 189 189 190 189 191 195 198 201 204 207 210 212 216 220 223 223
112 104 293 289 124 87 19 47 46 324 356 40 20 0 48 136 190 170 116 157 129 134 182 317 332 273 221 211 194 209 223 194 178 186 182 189 184 184 196 201 203 204 203 202 200 199 200 196 197 201 202 203 201 197 196 196 198 200 200 197 193 191 192 191 190 189 188 188 189 188 188 190 191 193 195 197 199 203 206 209 213 214 215 217 220 223
54 88 193 293 341 67 28 298 166 183 53 49 14 355 5 353 26 87 350 169 126 130 159 140 299 269 256 217 182 198 210 183 166 173 183 185 175 170 181 193 201 202 200 201 204 205 204 202 203 206 209 211 211 208 207 205 204 204 203 201 198 195 194 193 193 192 191 190 190 189 190 191 192 194 198 200 200 202 205 208 211 213 212 210 212 217
82 93 131 326 359 54 251 249 170 162 157 137 152 176 141 100 76 70 349 314 86 113 149 151 183 262 262 219 181 186 185 172 159 157 166 169 161 161 165 176 192 199 197 200 206 208 207 205 204 206 210 213 215 213 210 209 207 205 205 205 203 201 198 196 196 195 193 193 193 192 192 192 194 197 200 202 203 203 205 207 209 211 210 207 209 214
114 105 101 81 249 202 243 286 59 92 102 109 147 160 133 118 95 111 182 270 21 49 93 124 126 269 259 201 167 165 165 166 160 156 162 163 157 163 168 168 181 190 194 198 203 210 216 212 207 207 209 212 216 215 210 208 207 205 207 208 207 206 205 202 201 199 197 197 196 195 195 196 198 200 203 204 204 205 207 209 208 207 207 208 212 216
60 88 88 346 304 303 304 345 20 28 44 57 323 328 108 130 116 133 168 187 70 26 50 83 61 276 267 211 154 147 144 148 158 163 166 165 163 169 175 173 178 185 190 196 201 211 218 215 212 212 213 213 214 215 211 208 207 208 210 211 211 212 211 208 205 203 202 203 202 201 200 202 204 206 208 207 207 206 205 206 204 201 205 211 214 218
98 110 94 62 5 345 344 358 0 352 17 82 287 321 358 135 109 103 86 63 58 305 123 108 175 253 271 228 137 129 119 124 149 167 172 172 169 172 174 165 165 176 185 198 209 215 213 210 211 214 217 218 216 213 211 209 211 212 213 213 214 215 214 211 209 206 206 207 207 208 208 207 209 211 213 213 211 207 203 202 204 204 208 215 217 218
145 149 114 106 115 122 280 281 282 292 321 321 315 341 3 89 103 106 75 72 77 295 92 122 188 253 287 201 149 138 130 130 147 166 176 182 177 176 177 168 166 170 169 178 200 211 210 203 207 212 217 220 217 211 208 208 210 213 214 214 215 213 211 211 209 208 211 212 211 212 213 211 211 213 216 217 215 210 205 203 206 210 213 218 219 218
107 135 132 134 155 180 191 212 211 166 154 276 280 320 29 92 102 106 95 109 165 138 82 182 178 157 198 199 177 177 170 165 169 168 173 182 183 181 179 177 180 181 177 173 177 197 206 202 206 210 212 215 217 215 213 212 211 214 216 215 213 213 212 211 209 207 211 217 219 218 217 214 211 209 213 218 218 214 210 207 210 215 217 220 221 219
88 129 167 152 169 185 183 210 236 171 153 220 251 282 201 132 101 94 110 176 156 105 323 250 173 158 198 200 184 192 189 186 193 182 180 185 185 183 181 185 189 184 189 195 175 178 196 204 210 211 209 211 216 221 223 222 219 218 218 215 214 215 213 209 209 208 210 217 222 222 220 217 212 209 212 218 220 218 213 210 213 218 220 221 220 219
105 159 196 163 173 185 172 199 246 207 181 195 216 262 272 130 119 115 153 180 144 129 213 213 158 180 208 193 189 198 190 189 194 191 191 191 188 186 187 195 199 193 194 198 190 187 193 202 212 215 217 219 221 223 224 224 221 214 213 214 213 213 210 207 208 210 210 214 220 222 222 220 215 214 216 218 218 219 217 213 214 217 221 222 222 222
93 161 203 150 127 184 165 152 119 116 201 256 254 260 260 179 144 139 167 171 135 150 182 154 144 180 199 182 195 202 195 195 194 190 191 190 189 190 194 200 204 201 199 197 194 196 201 205 213 221 228 231 232 230 226 226 226 218 213 214 212 211 211 210 211 212 213 215 218 220 221 221 219 219 220 221 219 218 219 218 215 215 218 221 222 223
72 168 215 111 84 327 332 78 75 68 73 13 325 320 329 151 143 135 163 153 116 142 166 130 126 164 200 179 188 196 191 188 185 186 191 191 191 195 201 208 212 208 205 201 199 201 204 207 220 239 247 242 237 235 236 240 242 234 224 219 217 215 214 215 216 214 215 218 220 221 222 221 220 220 220 222 223 221 221 221 218 215 216 219 220 220
89 118 68 69 78 287 313 54 53 36 48 29 338 339 358 125 169 188 212 185 151 153 138 105 118 184 198 163 170 178 170 167 176 185 190 192 194 198 204 212 218 215 209 204 202 203 201 205 226 256 269 265 244 236 246 253 254 251 241 230 224 222 219 219 220 219 218 220 222 222 223 222 221 221 222 222 222 223 223 223 222 221 220 222 222 221
108 109 128 95 91 269 282 72 74 50 41 351 290 214 164 173 122 60 34 81 161 146 133 136 175 201 171 140 148 158 155 166 181 183 184 189 193 199 203 203 206 208 207 206 205 204 202 207 224 240 252 268 268 255 256 261 265 266 258 247 239 233 227 224 224 223 223 224 224 224 225 226 224 223 225 225 224 223 223 223 224 225 226 226 227 226
79 115 162 142 118 241 266 62 65 52 49 260 241 194 174 148 123 110 99 121 162 139 138 164 170 159 143 147 158 169 176 183 183 180 183 187 188 191 192 181 177 185 191 194 196 198 204 211 216 221 231 247 253 253 261 269 270 268 264 259 251 243 238 234 232 230 229 228 227 227 229 231 230 228 229 230 228 226 226 225 225 228 230 230 228 229
269 145 173 130 125 190 257 64 71 235 232 241 259 247 197 144 142 138 102 23 310 139 131 137 148 152 154 160 162 165 174 180 177 176 178 178 179 179 176 174 178 183 187 190 194 202 211 219 224 229 230 225 232 248 260 267 270 269 267 263 254 245 241 240 241 241 239 236 234 233 234 235 235 233 232 232 231 230 228 227 227 229 233 233 230 231
188 178 164 141 133 153 116 101 164 231 250 274 296 287 279 97 117 120 56 352 318 182 145 142 157 168 161 161 161 159 162 163 161 166 172 172 178 184 184 187 192 200 206 206 211 218 221 227 231 234 236 234 239 248 252 255 260 262 262 261 254 247 242 239 239 241 242 242 242 241 241 240 240 239 238 236 235 232 229 227 227 230 233 234 233 234
164 169 154 183 195 148 146 169 214 258 286 307 309 256 190 145 167 155 110 329 314 281 158 150 155 164 158 156 156 150 146 142 138 156 167 165 171 182 192 201 202 207 210 204 213 223 224 232 236 239 247 248 246 249 253 257 258 258 259 258 255 252 249 245 242 239 239 241 244 247 246 243 243 243 243 242 240 236 233 232 231 232 234 235 234 233
159 174 178 189 216 118 122 125 139 202 247 257 245 238 221 168 160 134 98 342 318 325 160 150 145 152 148 145 148 144 134 123 123 177 171 166 171 177 178 178 180 192 198 195 202 214 220 231 242 252 262 260 254 252 253 257 260 261 261 262 262 261 260 258 255 251 246 242 242 247 250 248 246 245 244 245 244 241 240 239 238 238 239 239 237 235
165 150 149 160 175 120 127 153 181 191 229 233 230 238 159 139 138 100 67 325 305 325 143 141 137 145 146 146 151 145 130 128 225 199 178 170 172 176 170 161 162 172 180 186 200 217 228 245 264 272 272 266 260 256 252 252 256 259 260 261 262 262 261 262 263 261 258 253 250 251 252 252 251 250 249 248 248 247 246 245 244 244 243 242 239 237
180 111 129 156 179 173 163 180 201 208 233 227 225 214 146 137 126 86 64 246 264 207 137 137 140 148 146 145 147 141 136 177 208 191 179 173 170 175 173 161 158 165 172 178 197 220 238 260 272 273 270 263 264 265 258 253 251 252 255 258 257 255 253 253 255 256 259 262 264 264 262 260 257 255 253 251 250 250 250 249 248 246 244 243 241 239
204 121 150 167 176 177 173 183 221 238 231 219 209 175 146 128 106 96 194 208 196 166 144 138 142 148 147 145 145 143 149 150 147 160 168 171 171 174 174 167 164 177 191 198 210 228 249 264 267 265 266 268 271 271 264 257 252 249 251 253 251 249 249 252 257 262 267 270 270 270 269 266 264 261 259 256 255 252 251 251 250 248 247 245 245 245
342 29 126 152 162 173 171 170 199 269 237 200 162 142 134 121 167 205 175 165 167 164 153 149 152 152 150 150 148 144 142 136 138 151 161 170 173 172 174 180 187 200 209 215 230 244 253 256 255 259 268 274 276 271 263 258 253 246 243 243 243 246 250 257 266 273 276 278 275 272 269 266 264 263 263 261 258 254 252 250 249 248 248 247 247 249
259 297 274 202 170 149 133 154 150 248 220 184 149 116 113 147 175 164 148 152 164 163 158 162 165 161 157 153 150 151 147 142 149 162 168 172 172 169 172 184 196 205 210 221 241 249 247 247 252 262 273 277 276 272 265 258 253 247 241 239 242 249 254 261 271 276 279 281 278 273 270 267 262 260 260 260 259 257 254 252 250 247 247 247 248 249
352 81 193 265 212 129 139 198 196 222 215 180 151 133 150 147 148 148 146 151 162 169 176 176 168 164 163 156 152 156 155 150 157 166 169 171 172 172 178 191 203 212 221 234 244 245 245 254 260 268 275 276 273 270 266 259 253 250 245 242 245 252 258 266 275 281 284 284 279 273 271 271 266 261 257 255 255 255 255 254 253 251 248 247 249 249
294 240 179 191 275 176 162 216 233 226 154 139 129 129 138 141 144 147 147 146 151 166 175 166 154 155 159 151 152 161 163 161 165 169 170 171 175 180 187 199 210 219 228 237 240 244 253 261 264 269 273 273 269 263 258 251 245 243 245 248 250 255 265 279 288 290 290 288 283 277 273 273 272 268 263 257 252 252 253 253 253 254 252 249 248 246
289 283 190 152 309 340 79 21 350 82 113 128 130 132 138 140 142 149 151 146 143 149 153 149 146 149 152 151 157 166 169 165 163 167 170 171 175 183 189 196 206 218 228 232 234 246 256 259 263 269 273 270 262 256 253 250 245 241 243 250 260 271 284 300 309 309 307 301 292 285 279 277 276 276 275 268 258 253 253 253 252 253 252 249 246 243
322 332 355 87 40 49 63 337 356 104 123 129 132 137 142 141 142 150 151 144 139 140 140 139 141 146 153 159 161 162 167 167 163 163 170 174 177 184 190 195 203 214 225 232 239 248 255 260 267 276 279 266 253 250 252 251 246 241 240 246 260 281 299 311 325 336 335 324 309 297 292 294 298 297 292 282 267 258 254 252 250 250 249 246 243 240
333 347 354 36 47 96 160 320 8 113 131 135 140 147 151 147 147 149 146 141 140 139 135 136 143 150 157 165 163 159 164 170 171 169 172 176 181 186 190 197 204 209 216 229 243 253 260 268 273 272 265 254 249 250 250 248 245 244 248 251 256 276 302 310 326 347 351 341 326 313 310 320 324 318 312 300 275 258 253 250 247 246 247 247 245 243
319 332 321 16 35 60 83 29 38 84 118 141 149 153 154 152 147 143 141 143 145 144 139 139 143 145 149 154 156 156 161 170 177 176 176 178 182 186 193 199 203 206 212 225 244 258 267 275 276 266 253 252 259 259 248 245 248 249 250 251 259 285 311 313 319 340 353 354 347 339 339 341 334 325 323 320 300 264 249 245 243 243 244 244 245 247
314 320 326 70 56 80 181 176 105 110 205 206 169 154 154 155 150 144 144 150 155 155 151 144 138 138 145 152 155 157 161 168 175 178 180 182 185 189 193 197 202 210 218 230 248 264 274 278 271 262 260 266 273 263 240 239 247 248 241 245 261 278 288 308 320 324 350 9 13 12 1 347 336 332 335 337 326 291 260 243 238 239 241 241 243 246
259 246 219 139 149 213 215 186 146 129 225 215 179 156 155 160 156 151 151 156 161 164 161 156 152 150 149 151 155 163 167 170 175 180 182 182 186 189 190 195 210 221 228 246 262 271 277 270 256 261 273 282 278 249 223 219 227 232 232 235 251 263 268 296 319 294 330 17 25 25 10 352 343 340 344 350 341 311 275 250 236 231 233 239 244 243